Location: Newark
(25.6108°S, 54.5803°W)
Time: 16:52:20
(UTC+00:00)

Courier 1B Rocket - Pass Details

Date: 28 October 2020
Orbit: 920 x 1202 km, 28.2° (Epoch: 22 November)

Event Time Altitude Azimuth Distance (km) Brightness Sun altitude
Rises 15:12:56 0° 259° (WSW) 3,631 7.9 77.6°
Reaches altitude 10° 15:15:41 10° 263° (W) 2,657 7.4 77.7°
Maximum altitude 15:21:48 50° 337° (NNW) 1,153 6.8 77.8°
Drops below altitude 10° 15:27:49 10° 51° (NE) 2,610 7.5 77.7°
Sets 15:30:29 0° 56° (ENE) 3,561 8.0 77.6°
